SVRATOUCH Weather Reports


time (UTC)temp
F
wind
direction
speed
knots
gust
knots
rain 1hr
in
rain 24hr
in
rain mn
in
humidity
%
barometer
mb
20260507032027 48 220 4.3 0.0 0.00 0.00 0.00 93
20260507022025 50 300 4.3 0.0 0.00 0.00 0.00 87
20260507012116 50 310 4.3 0.0 0.00 0.00 0.00 93
20260507002026 50 350 6.1 0.0 0.00 0.00 0.00 93
20260506232026 50 350 12.2 0.0 0.00 0.00 0.00 93
20260506222247 54 260 12.2 0.0 0.00 0.00 0.00 81
20260506212048 52 180 7.8 0.0 0.00 0.00 0.00 93
20260506202048 52 50 7.8 0.0 0.00 0.00 0.00 93
20260506192209 54 20 10.4 0.0 0.00 0.00 0.00 87
20260506182106 63 170 7.8 0.0 0.00 0.00 0.00 55
20260506172030 64 170 15.6 25.2 0.00 0.00 0.00 48
20260506162248 64 170 15.6 0.0 0.00 0.00 0.00 52
20260506152105 66 160 15.6 0.0 0.00 0.00 0.00 48
20260506142033 64 180 15.6 0.0 0.00 0.00 0.00 48
20260506132033 64 180 13.9 0.0 0.00 0.00 0.00 48
20260506122033 66 190 10.4 0.0 0.00 0.00 0.00 45
20260506112027 63 200 7.8 0.0 0.00 0.00 0.00 55
20260506102217 63 220 10.4 0.0 0.00 0.00 0.00 51
20260506092000 61 230 10.4 0.0 0.00 0.00 0.00 63
20260506082026 57 270 12.2 0.0 0.00 0.00 0.00 71
20260506072027 55 260 13.9 0.0 0.00 0.00 0.00 71
20260506062051 54 270 15.6 0.0 0.00 0.00 0.00 76
20260506042231 50 240 7.8 0.0 0.00 0.00 0.00 99